• In Uzbekistan
  • List of Countries
  • For 7 days
  • Water Temperature
  • Satellite Maps
  • Weather Map
  • Weather Widgets
  • user-avatar
    Login

    Hourly Weather Shusha

    Today, 19 July, Friday

    Time Temperature Precipitation Wind Pressure Humidity
    00:00 +21°C° 0 mm 1 mps 656 mmHg 61%
    01:00 +21°C° 0 mm 1 mps 656 mmHg 61%
    02:00 +21°C° 0 mm 1 mps 656 mmHg 61%
    03:00 +21°C° 0 mm 1 mps 656 mmHg 62%
    04:00 +21°C° 0 mm 1 mps 657 mmHg 62%
    05:00 +21°C° 0 mm 1 mps 657 mmHg 63%
    06:00 +22°C° 0 mm 1 mps 658 mmHg 64%
    07:00 +23°C° 0 mm 1 mps 658 mmHg 60%
    08:00 +24°C° 0 mm 2 mps 658 mmHg 57%
    09:00 +26°C° 0 mm 2 mps 659 mmHg 53%
    10:00 +27°C° 0 mm 2 mps 659 mmHg 51%
    11:00 +28°C° 0 mm 3 mps 659 mmHg 48%
    12:00 +29°C° 0 mm 3 mps 659 mmHg 46%
    13:00 +29°C° 0 mm 3 mps 659 mmHg 45%
    14:00 +29°C° 0 mm 3 mps 659 mmHg 44%
    15:00 +30°C° 0 mm 3 mps 659 mmHg 42%
    16:00 +29°C° 0 mm 3 mps 659 mmHg 45%
    17:00 +28°C° 0 mm 3 mps 659 mmHg 47%
    18:00 +27°C° 0 mm 3 mps 659 mmHg 50%
    19:00 +25°C° 0 mm 2 mps 659 mmHg 54%
    20:00 +24°C° 0 mm 2 mps 659 mmHg 59%
    21:00 +22°C° 0 mm 1 mps 659 mmHg 63%
    22:00 +22°C° 0 mm 1 mps 659 mmHg 63%
    23:00 +21°C° 0 mm 2 mps 660 mmHg 63%

    Tomorrow, 20 July, Saturday

    Time Temperature Precipitation Wind Pressure Humidity
    00:00 +21°C° 0 mm 2 mps 660 mmHg 63%
    01:00 +20°C° 0 mm 2 mps 660 mmHg 63%
    02:00 +21°C° 0 mm 1 mps 660 mmHg 64%
    03:00 +21°C° 0 mm 1 mps 660 mmHg 64%
    04:00 +21°C° 0 mm 1 mps 660 mmHg 64%
    05:00 +22°C° 0 mm 1 mps 661 mmHg 63%
    06:00 +22°C° 0 mm 1 mps 661 mmHg 63%
    07:00 +24°C° 0 mm 1 mps 662 mmHg 58%
    08:00 +25°C° 0 mm 2 mps 662 mmHg 53%
    09:00 +27°C° 0 mm 2 mps 663 mmHg 47%
    10:00 +28°C° 0 mm 3 mps 663 mmHg 44%
    11:00 +29°C° 0 mm 3 mps 663 mmHg 41%
    12:00 +30°C° 0 mm 4 mps 663 mmHg 37%
    13:00 +30°C° 0 mm 4 mps 663 mmHg 36%
    14:00 +30°C° 0 mm 4 mps 663 mmHg 36%
    15:00 +32°C° 0 mm 4 mps 662 mmHg 35%
    16:00 +30°C° 0 mm 4 mps 662 mmHg 38%
    17:00 +29°C° 0 mm 4 mps 662 mmHg 42%
    18:00 +28°C° 0 mm 4 mps 662 mmHg 45%
    19:00 +26°C° 0 mm 3 mps 662 mmHg 49%
    20:00 +24°C° 0 mm 3 mps 662 mmHg 54%
    21:00 +21°C° 0 mm 2 mps 662 mmHg 58%
    22:00 +21°C° 0 mm 2 mps 662 mmHg 58%
    23:00 +20°C° 0 mm 2 mps 662 mmHg 58%

    Day after tomorrow, 21 July, Sunday

    Time Temperature Precipitation Wind Pressure Humidity
    00:00 +20°C° 0 mm 2 mps 663 mmHg 58%
    01:00 +20°C° 0 mm 2 mps 662 mmHg 58%
    02:00 +20°C° 0 mm 2 mps 662 mmHg 58%
    03:00 +19°C° 0 mm 2 mps 662 mmHg 57%
    04:00 +20°C° 0 mm 2 mps 662 mmHg 57%
    05:00 +20°C° 0 mm 2 mps 663 mmHg 57%
    06:00 +21°C° 0 mm 2 mps 663 mmHg 57%
    07:00 +23°C° 0 mm 2 mps 663 mmHg 53%
    08:00 +25°C° 0 mm 2 mps 664 mmHg 49%
    09:00 +26°C° 0 mm 3 mps 664 mmHg 44%
    10:00 +27°C° 0 mm 3 mps 664 mmHg 42%
    11:00 +29°C° 0 mm 3 mps 664 mmHg 39%
    12:00 +30°C° 0 mm 3 mps 664 mmHg 36%
    13:00 +30°C° 0 mm 3 mps 663 mmHg 35%
    14:00 +31°C° 0 mm 3 mps 663 mmHg 34%
    15:00 +33°C° 0 mm 3 mps 662 mmHg 33%
    16:00 +31°C° 0 mm 3 mps 662 mmHg 36%
    17:00 +30°C° 0 mm 3 mps 662 mmHg 39%
    18:00 +29°C° 0 mm 2 mps 662 mmHg 42%
    19:00 +27°C° 0 mm 2 mps 661 mmHg 46%
    20:00 +25°C° 0 mm 2 mps 661 mmHg 51%
    21:00 +23°C° 0 mm 1 mps 661 mmHg 55%
    22:00 +23°C° 0 mm 1 mps 661 mmHg 55%
    23:00 +22°C° 0 mm 1 mps 661 mmHg 56%

    22 July, Monday

    Time Temperature Precipitation Wind Pressure Humidity
    00:00 +21°C° 0 mm 2 mps 661 mmHg 56%
    01:00 +22°C° 0 mm 1 mps 660 mmHg 55%
    02:00 +22°C° 0 mm 1 mps 660 mmHg 55%
    03:00 +22°C° 0 mm 1 mps 660 mmHg 54%
    04:00 +23°C° 0 mm 1 mps 660 mmHg 54%
    05:00 +23°C° 0 mm 1 mps 660 mmHg 54%
    06:00 +22°C° 0 mm 0 mps 660 mmHg 54%
    07:00 +25°C° 0 mm 1 mps 661 mmHg 50%
    08:00 +27°C° 0 mm 1 mps 661 mmHg 46%
    09:00 +28°C° 0 mm 2 mps 661 mmHg 41%
    10:00 +29°C° 0 mm 2 mps 661 mmHg 40%
    11:00 +30°C° 0 mm 2 mps 661 mmHg 38%
    12:00 +31°C° 0 mm 3 mps 661 mmHg 36%
    13:00 +33°C° 0 mm 3 mps 660 mmHg 35%
    14:00 +33°C° 0 mm 3 mps 660 mmHg 35%
    15:00 +34°C° 0 mm 3 mps 659 mmHg 34%
    16:00 +32°C° 0 mm 2 mps 659 mmHg 37%
    17:00 +31°C° 0 mm 2 mps 659 mmHg 39%
    18:00 +30°C° 0 mm 2 mps 658 mmHg 42%
    19:00 +28°C° 0 mm 2 mps 658 mmHg 46%
    20:00 +26°C° 0 mm 1 mps 658 mmHg 50%
    21:00 +24°C° 0 mm 1 mps 658 mmHg 55%
    22:00 +24°C° 0 mm 1 mps 658 mmHg 55%
    23:00 +24°C° 0 mm 1 mps 658 mmHg 55%

    23 July, Tuesday

    Time Temperature Precipitation Wind Pressure Humidity
    00:00 +24°C° 0 mm 1 mps 658 mmHg 56%
    01:00 +23°C° 0 mm 1 mps 658 mmHg 58%
    02:00 +22°C° 0 mm 1 mps 657 mmHg 61%
    03:00 +22°C° 0 mm 1 mps 657 mmHg 64%
    04:00 +22°C° 0 mm 1 mps 658 mmHg 63%
    05:00 +22°C° 0 mm 1 mps 658 mmHg 63%
    06:00 +23°C° 0 mm 1 mps 658 mmHg 62%
    07:00 +24°C° 0 mm 1 mps 658 mmHg 56%
    08:00 +25°C° 0 mm 2 mps 659 mmHg 50%
    09:00 +27°C° 0 mm 3 mps 659 mmHg 44%
    10:00 +28°C° 0 mm 3 mps 659 mmHg 43%
    11:00 +29°C° 0 mm 3 mps 658 mmHg 42%
    12:00 +30°C° 0 mm 4 mps 658 mmHg 40%
    13:00 +30°C° 0 mm 4 mps 658 mmHg 40%
    14:00 +30°C° 0 mm 4 mps 657 mmHg 41%
    15:00 +32°C° 0 mm 4 mps 657 mmHg 41%
    16:00 +30°C° 0 mm 4 mps 657 mmHg 44%
    17:00 +29°C° 0 mm 3 mps 656 mmHg 46%
    18:00 +28°C° 0 mm 3 mps 656 mmHg 49%
    19:00 +26°C° 0 mm 2 mps 656 mmHg 54%
    20:00 +24°C° 0 mm 2 mps 656 mmHg 59%
    21:00 +23°C° 0 mm 1 mps 656 mmHg 64%
    22:00 +22°C° 0 mm 1 mps 656 mmHg 65%
    23:00 +22°C° 0 mm 1 mps 656 mmHg 66%

    24 July, Wednesday

    Time Temperature Precipitation Wind Pressure Humidity
    00:00 +21°C° 0 mm 1 mps 656 mmHg 67%
    01:00 +21°C° 0 mm 1 mps 656 mmHg 67%
    02:00 +21°C° 0 mm 1 mps 656 mmHg 67%
    03:00 +20°C° 0 mm 1 mps 656 mmHg 67%
    04:00 +21°C° 0 mm 1 mps 656 mmHg 65%
    05:00 +21°C° 0 mm 1 mps 656 mmHg 62%
    06:00 +22°C° 0 mm 1 mps 656 mmHg 60%
    07:00 +24°C° 0 mm 1 mps 657 mmHg 53%
    08:00 +25°C° 0 mm 2 mps 657 mmHg 46%
    09:00 +27°C° 0 mm 2 mps 657 mmHg 40%
    10:00 +28°C° 0 mm 2 mps 657 mmHg 38%
    11:00 +30°C° 0 mm 2 mps 657 mmHg 36%
    12:00 +31°C° 0 mm 3 mps 657 mmHg 34%
    13:00 +31°C° 0 mm 3 mps 657 mmHg 34%
    14:00 +33°C° 0 mm 3 mps 656 mmHg 34%
    15:00 +33°C° 0 mm 3 mps 656 mmHg 34%
    16:00 +31°C° 0 mm 3 mps 656 mmHg 36%
    17:00 +30°C° 0 mm 3 mps 656 mmHg 39%
    18:00 +29°C° 0 mm 2 mps 655 mmHg 42%
    19:00 +27°C° 0 mm 2 mps 655 mmHg 47%
    20:00 +25°C° 0 mm 2 mps 655 mmHg 51%
    21:00 +23°C° 0 mm 1 mps 655 mmHg 56%
    22:00 +23°C° 0 mm 1 mps 655 mmHg 57%
    23:00 +22°C° 0 mm 1 mps 655 mmHg 57%
    Show more